Date String (YYYY-MM-DD hh:mm:ss) UTC,Instrument flags,Ambient pressure (hPa),Sample flow (lpm),Bypass flow (lpm),Sample temperature (°C),Ambient temperature (°C),ASC tube jacket temperature (°C),LED temperature (°C),Box temperature (°C),Sample RH (%),Span deviation,Mass concentration (μg/m³),Mass concentration (μg/m³),Mass concentration (μg/m³)
DateTimeUTC,F1_M11,P_M11,Q1_M11,Q2_M11,T1_M11,T2_M11,T3_M11,T4_M11,T5_M11,U1_M11,ZSPAN_M11,X0_M11,X2_M11,X1_M11
2022-05-29 10:00:00,,0813.1,5.02,0.00,29.5,28.4,00.0,38.4,31.3,15.2,0000.0,0016.82,0004.70,0002.54
2022-05-29 10:01:00,,0813.1,4.99,0.00,29.5,28.4,00.0,38.4,31.3,15.3,0000.0,0017.51,0004.73,0002.52
2022-05-29 10:02:00,,0813.1,5.01,0.00,29.5,28.4,00.0,38.4,31.3,15.6,0000.0,0017.29,0004.74,0002.53
2022-05-29 10:03:00,,0813.2,5.00,0.00,29.5,28.4,00.0,38.4,31.3,15.9,0000.0,0016.90,0004.66,0002.51
2022-05-29 10:04:00,,0813.1,4.99,0.00,29.5,28.4,00.0,38.4,31.3,16.0,0000.0,0016.18,0004.62,0002.52
2022-05-29 10:05:00,,0813.2,5.00,0.00,29.5,28.4,00.0,38.4,31.3,16.1,0000.0,0015.68,0004.55,0002.52
2022-05-29 10:06:00,,0813.2,5.02,0.00,29.5,28.5,00.0,38.4,31.3,16.2,0000.0,0015.55,0004.50,0002.52
2022-05-29 10:07:00,,0813.1,5.00,0.00,29.5,28.5,00.0,38.4,31.3,16.3,0000.0,0015.72,0004.49,0002.53
2022-05-29 10:08:00,,0813.1,5.00,0.00,29.5,28.5,00.0,38.4,31.3,16.4,0000.0,0015.83,0004.53,0002.55
2022-05-29 10:09:00,,0813.0,5.01,0.00,29.5,28.5,00.0,38.4,31.3,16.4,0000.0,0016.13,0004.53,0002.58
2022-05-29 10:10:00,,0813.0,4.99,0.00,29.5,28.5,00.0,38.4,31.3,16.3,0000.0,0016.04,0004.50,0002.60
2022-05-29 10:11:00,,0813.0,5.00,0.00,29.5,28.5,00.0,38.4,31.3,16.4,0000.0,0016.37,0004.49,0002.65
2022-05-29 10:12:00,,0812.9,5.00,0.00,29.5,28.5,00.0,38.4,31.3,16.3,0000.0,0016.12,0004.49,0002.69
2022-05-29 10:13:00,,0813.1,5.01,0.00,29.5,28.5,00.0,38.4,31.3,15.8,0000.0,0016.18,0004.47,0002.68
2022-05-29 10:14:00,,0813.1,5.00,0.00,29.5,28.5,00.0,38.4,31.3,15.5,0000.0,0015.68,0004.49,0002.70
2022-05-29 10:15:00,,0813.1,4.99,0.00,29.5,28.5,00.0,38.4,31.3,15.3,0000.0,0016.05,0004.54,0002.72
2022-05-29 10:16:00,,0813.0,5.01,0.00,29.5,28.5,00.0,38.4,31.4,15.2,0000.0,0015.76,0004.56,0002.74
2022-05-29 10:17:00,,0813.0,5.01,0.00,29.5,28.5,00.0,38.4,31.3,15.1,0000.0,0015.45,0004.61,0002.73
2022-05-29 10:18:00,,0813.0,5.00,0.00,29.5,28.5,00.0,38.4,31.4,15.0,0000.0,0015.10,0004.66,0002.71
2022-05-29 10:19:00,,0813.0,4.99,0.00,29.5,28.5,00.0,38.4,31.3,14.9,0000.0,0014.77,0004.60,0002.68
2022-05-29 10:20:00,,0813.0,5.01,0.00,29.5,28.5,00.0,38.4,31.3,15.0,0000.0,0014.56,0004.57,0002.65
2022-05-29 10:21:00,,0812.9,5.00,0.00,29.5,28.4,00.0,38.4,31.3,15.0,0000.0,0015.21,0004.63,0002.63
2022-05-29 10:22:00,,0813.0,4.99,0.00,29.5,28.4,00.0,38.4,31.3,14.9,0000.0,0015.65,0004.69,0002.59
2022-05-29 10:23:00,,0813.0,5.00,0.00,29.5,28.4,00.0,38.4,31.3,15.0,0000.0,0015.47,0004.69,0002.57
2022-05-29 10:24:00,,0813.0,5.00,0.00,29.5,28.4,00.0,38.4,31.3,15.1,0000.0,0015.17,0004.71,0002.56
2022-05-29 10:25:00,,0813.0,5.01,0.00,29.5,28.4,00.0,38.4,31.3,15.0,0000.0,0014.91,0004.73,0002.55
2022-05-29 10:26:00,,0813.0,5.00,0.00,29.5,28.4,00.0,38.4,31.3,15.1,0000.0,0014.78,0004.73,0002.55
2022-05-29 10:27:00,,0813.1,4.99,0.00,29.5,28.4,00.0,38.4,31.3,15.0,0000.0,0014.92,0004.70,0002.52
2022-05-29 10:28:00,,0813.1,5.01,0.00,29.5,28.4,00.0,38.4,31.3,15.1,0000.0,0015.23,0004.71,0002.52
2022-05-29 10:29:00,,0813.2,5.00,0.00,29.5,28.4,00.0,38.4,31.3,15.1,0000.0,0015.42,0004.70,0002.52
2022-05-29 10:30:00,,0813.1,4.99,0.00,29.5,28.4,00.0,38.4,31.3,15.1,0000.0,0015.00,0004.68,0002.53
2022-05-29 10:31:00,,0813.0,5.01,0.00,29.5,28.4,00.0,38.4,31.3,15.1,0000.0,0014.21,0004.72,0002.55
2022-05-29 10:32:00,,0813.2,5.00,0.00,29.5,28.4,00.0,38.4,31.3,15.0,0000.0,0014.48,0004.71,0002.55
2022-05-29 10:33:00,,0813.1,4.99,0.00,29.5,28.4,00.0,38.4,31.3,15.0,0000.0,0014.01,0004.63,0002.54
2022-05-29 10:34:00,,0813.2,5.00,0.00,29.5,28.4,00.0,38.4,31.3,15.0,0000.0,0013.72,0004.58,0002.52
2022-05-29 10:35:00,,0813.2,5.00,0.00,29.5,28.4,00.0,38.4,31.3,14.9,0000.0,0014.35,0004.59,0002.53
2022-05-29 10:36:00,,0813.2,5.00,0.00,29.5,28.4,00.0,38.4,31.3,14.6,0000.0,0014.45,0004.56,0002.52
2022-05-29 10:37:00,,0813.2,5.00,0.00,29.5,28.4,00.0,38.4,31.3,14.5,0000.0,0014.52,0004.53,0002.48
2022-05-29 10:38:00,,0813.2,5.00,0.00,29.5,28.4,00.0,38.4,31.2,14.6,0000.0,0015.16,0004.57,0002.47
2022-05-29 10:39:00,,0813.2,5.01,0.00,29.4,28.4,00.0,38.4,31.2,14.8,0000.0,0014.91,0004.58,0002.47
2022-05-29 10:40:00,,0813.2,5.00,0.00,29.4,28.3,00.0,38.4,31.2,14.8,0000.0,0014.44,0004.51,0002.46
2022-05-29 10:41:00,,0813.2,5.00,0.00,29.4,28.3,00.0,38.4,31.2,14.8,0000.0,0014.04,0004.45,0002.44
2022-05-29 10:42:00,,0813.3,5.00,0.00,29.4,28.3,00.0,38.4,31.2,15.0,0000.0,0014.45,0004.40,0002.41
2022-05-29 10:43:00,,0813.2,4.99,0.00,29.4,28.3,00.0,38.4,31.1,15.1,0000.0,0014.10,0004.34,0002.41
2022-05-29 10:44:00,,0813.3,5.00,0.00,29.4,28.2,00.0,38.4,31.1,14.9,0000.0,0013.73,0004.34,0002.40
2022-05-29 10:45:00,,0813.3,5.00,0.00,29.4,28.2,00.0,38.4,31.1,14.9,0000.0,0014.14,0004.32,0002.39
2022-05-29 10:46:00,,0813.3,5.00,0.00,29.3,28.2,00.0,38.4,31.1,14.8,0000.0,0013.90,0004.30,0002.36
2022-05-29 10:47:00,,0813.4,5.01,0.00,29.3,28.1,00.0,38.4,31.1,14.9,0000.0,0013.75,0004.30,0002.34
2022-05-29 10:48:00,,0813.4,5.01,0.00,29.3,28.1,00.0,38.3,31.0,14.9,0000.0,0013.49,0004.31,0002.36
2022-05-29 10:49:00,,0813.4,5.00,0.00,29.3,28.1,00.0,38.3,31.0,15.1,0000.0,0012.97,0004.24,0002.36
2022-05-29 10:50:00,,0813.5,5.00,0.00,29.3,28.1,00.0,38.3,31.0,15.4,0000.0,0013.23,0004.22,0002.35
2022-05-29 10:51:00,,0813.5,5.00,0.00,29.3,28.1,00.0,38.3,31.0,15.2,0000.0,0013.89,0004.31,0002.34
2022-05-29 10:52:00,,0813.4,5.00,0.00,29.2,28.1,00.0,38.3,31.0,15.0,0000.0,0014.25,0004.39,0002.34
2022-05-29 10:53:00,,0813.4,5.00,0.00,29.2,28.1,00.0,38.3,31.0,14.8,0000.0,0013.81,0004.40,0002.32
2022-05-29 10:54:00,,0813.5,4.99,0.00,29.2,28.1,00.0,38.3,31.0,14.8,0000.0,0013.26,0004.42,0002.27
2022-05-29 10:55:00,,0813.5,4.99,0.00,29.2,28.1,00.0,38.3,31.0,14.8,0000.0,0013.17,0004.44,0002.25
2022-05-29 10:56:00,,0813.5,5.00,0.00,29.2,28.1,00.0,38.3,31.0,14.7,0000.0,0012.71,0004.50,0002.24
2022-05-29 10:57:00,,0813.5,4.99,0.00,29.2,28.1,00.0,38.2,31.0,14.8,0000.0,0012.18,0004.46,0002.22
2022-05-29 10:58:00,,0813.5,5.00,0.00,29.2,28.1,00.0,38.2,31.0,14.8,0000.0,0012.26,0004.48,0002.21
2022-05-29 10:59:00,,0813.4,5.01,0.00,29.2,28.1,00.0,38.2,31.0,14.8,0000.0,0012.54,0004.47,0002.20
